Terug naar catalogus

CZ-6A DEB

ActiefSSO
NORAD 54623·DEBRIS·🇨🇳 China

Gelanceerd Nov 11, 2022 vanaf Taiyuan Satellite Launch Center

Loading…

Volgende Passages (komende 24 uur)

TLE

VersSource: Space-Track

Epoch: Sep 14, 2026, 22:53 UTC

1 54623U 22151NZ  26257.95360132  .00000514  00000-0  29740-3 0  9997
2 54623  98.8467 261.5319 0044037  77.5128 283.0966 14.12801612196577

Volg CZ-6A DEB in realtime met AllMySat

Download on the App Store